{"data":{"norad_id":62969,"intl_designator":"2025-029X","name":"STARLINK-32894","alt_names":[],"object_type":"PAYLOAD","status":"ACTIVE","operator":null,"country":"US","launch_date":"2025-02-11","launch_site_code":"AFWTR","launch_vehicle":null,"mission":null,"orbit_class":"UNKNOWN","rcs_meters":null,"size_class":null,"mass_kg":null,"dimensions":null,"purposes":["comms"],"wikipedia_slug":null,"has_3d_model":false,"image_url":null,"decayed_at":null,"tle_current":{"epoch":"2026-05-24T17:42:55.728000Z","epoch_age_seconds":108045,"freshness":"FRESH","line1":"1 62969U 25029X   26144.73814500  .00022969  00000+0  78522-3 0  9999","line2":"2 62969  53.1585 239.0230 0001099  79.1614 280.9511 15.30200097 72964","mean_motion":15.30200097,"eccentricity":0.0001099,"inclination_deg":53.1585,"raan_deg":239.023,"arg_perigee_deg":79.1614,"mean_anomaly_deg":280.9511,"bstar":0.00078522,"rev_number":7296,"period_min":94.105339741068,"perigee_km":474.46159643422,"apogee_km":475.96796315542,"semimajor_km":6853.3517797948,"source":"CELESTRAK","updated_at":"2026-05-25T13:38:19.829094Z"}}}